Miscellaneous Local Product
Issued by NWS North Platte, NE

Home | Current Version | Previous Version | Graphics & Text | Print | Product List | Glossary On
Versions: 1 2 3 4 5 6 7 8 9 10 11 12 13 14 15 16 17 18 19 20 21 22 23 24 25 26 27 28 29 30 31 32 33 34 35 36 37 38 39 40 41 42 43 44 45 46 47 48 49 50
464
AXUS43 KLBF 230410
MISLBF


WESTERN AND NORTH CENTRAL NEBRASKA HOURLY WEATHER ROUNDUP
NATIONAL WEATHER SERVICE NORTH PLATTE NE
1100 PM CDT MON MAY 22 2017

NOTE: "FAIR" INDICATES FEW OR NO CLOUDS BELOW 12,000 FEET WITH NO
SIGNIFICANT WEATHER AND/OR OBSTRUCTIONS TO VISIBILITY.

NOTE: STATIONS NOT REPORTING VARIABLES SUCH AS SKY/WEATHER OR
PRESSURE ARE PROVIDED BY RAWS AND APRS NETWORKS AND ARE NOT UNDER
NATIONAL WEATHER SERVICE QUALITY CONTROL.

...OBSERVATIONS IN AND NEAR THE EASTERN PANHANDLE OF NEBRASKA...

CITY           SKY/WX    TMP DP  RH WIND       PRES   REMARKS
PINE RIDGE     CLOUDY    43  42  97 SW6       30.14R
GORDON         FAIR      43  38  84 NW7       30.12R
CHADRON        MOCLDY    43  40  89 W3        30.15R
ALLIANCE       CLEAR     34  33  96 W7        30.15R WCI  28
SIDNEY         CLOUDY    40  37  89 NW10      30.18R WCI  33
CRESCENT LAKE    N/A     42  40  92 NW9         N/A
$$

...OBSERVATIONS IN NORTHERN NEBRASKA AND FAR SOUTHERN SOUTH DAKOTA...

CITY           SKY/WX    TMP DP  RH WIND       PRES   REMARKS
WINNER         CLOUDY    51  46  83 NW6       30.03R
VALENTINE      PTCLDY    46  40  79 W7        30.06R
THEDFORD       PTCLDY    46  43  91 NW6       30.08R
AINSWORTH      CLOUDY    47  43  85 N7        30.06R
O`NEILL        CLOUDY    48  41  76 W6        30.01S
ORD            CLOUDY    52  43  71 N13       30.01R
BROKEN BOW     CLOUDY    52  42  69 N9        30.04R
VALENTINE NWR    N/A     47  44  91 NW10G21     N/A
HALSEY           N/A     47  45  92 W5          N/A
BUTTE            N/A     49  42  78 W6          N/A
CHAMBERS         N/A     49  42  77 CALM        N/A
EWING            N/A     47  43  87 CALM        N/A
$$

...OBSERVATIONS IN SOUTHWEST NEBRASKA AND FAR NORTHEAST COLORADO...

CITY           SKY/WX    TMP DP  RH WIND       PRES   REMARKS
WRAY           FAIR      46  39  76 N12       30.15R
IMPERIAL       PTCLDY    47  41  80 NW9       30.12R
OGALLALA       PTCLDY    44  40  85 NW9       30.12R
NORTH PLATTE   CLOUDY    46  45  96 W8        30.08S
MCCOOK         CLOUDY    52  46  80 N22       30.08R
LEXINGTON      LGT RAIN  51  48  90 NW8       30.07R
STAPLETON        N/A     46  43  89 CALM        N/A
GOTHENBURG       N/A     50  44  80 NW12        N/A
CALLAWAY         N/A     49  47  93 NW12        N/A
$$

...OBSERVATIONS IN CENTRAL LINCOLN COUNTY AREA...

CITY           SKY/WX    TMP DP  RH WIND       PRES   REMARKS
N.P. AIRPORT   CLOUDY    46  45  96 W8        30.08S
N.P. DOWNTOWN    N/A     47  44  88 NW3         N/A
N.P. SOUTHEAST   N/A     47  44  88 N3          N/A
N.P. HILLCREST   N/A     46  45  96 NW8         N/A
$$

...SOME OBSERVATIONS FROM AROUND THE REGION...

CITY           SKY/WX    TMP DP  RH WIND       PRES   REMARKS
DENVER         CLOUDY    45  39  79 W10       30.25R
LIMON          CLOUDY    43  37  79 NW15G24   30.21R
ASPEN          CLOUDY    40  38  93 SE8       30.27S WCI  34
LARAMIE        CLOUDY    37  32  82 NW13      30.27R WCI  29
CASPER         CLOUDY    41  38  89 W6        30.27R
CHEYENNE       CLOUDY    40  33  76 N14       30.24R WCI  32
SCOTTSBLUFF    CLEAR     43  37  79 NW6       30.18R
GRAND ISLAND   CLOUDY    56  48  74 N16       29.99R
OMAHA          MOCLDY    56  51  84 NW7       29.90R
SIOUX FALLS    CLOUDY    50  47  89 W7        29.92F
PIERRE         CLOUDY    51  40  65 NW7       30.02R
RAPID CITY     MOCLDY    46  40  79 NW8       30.13R
BISMARCK       CLOUDY    54  41  61 NE13      30.05R
KANSAS CITY    MOCLDY    54  54 100 S6        29.92F
HILL CITY      CLOUDY    54  51  90 N9        30.02S
WICHITA        PTCLDY    53  53 100 S5        29.93R
DODGE CITY     LGT RAIN  54  48  80 N14       30.02R
OKLAHOMA CITY  CLOUDY    59  58  96 N8        29.94F
DALLAS         CLOUDY    69  62  78 SE12      29.92R
AMARILLO       CLOUDY    51  49  92 CALM      30.06R
$$




USA.gov is the U.S. government's official web portal to all federal, state and local government web resources and services.